Location: Casilda
(33.0440°S, 61.1680°W)
Time: 22:42:14
(UTC-03:00)

ISS - Visible Passes

Search period start: 14 December 2025 00:00
Search period end: 24 December 2025 00:00
Orbit: 416 x 420 km, 51.6° (Epoch: 14 December)

Date Brightness Start Highest point End Pass type
(mag) Time Alt. Az. Time Alt. Az. Time Alt. Az.
16 Dec -0.4 23:35:53 10° SSE 23:36:06 10° SSE 23:36:06 10° SSE visible
18 Dec -0.6 23:34:51 10° SSW 23:35:47 15° S 23:35:47 15° S visible
19 Dec -1.1 22:47:17 10° S 22:49:13 15° SSE 22:49:13 15° SSE visible
20 Dec -0.8 22:00:29 10° SSE 22:01:01 10° SSE 22:01:32 10° SE visible
20 Dec -0.6 23:34:54 10° SW 23:35:34 15° SW 23:35:34 15° SW visible
21 Dec -1.9 22:46:53 10° SSW 22:49:04 29° S 22:49:04 29° S visible
22 Dec -1.9 21:59:03 10° SSW 22:01:49 23° SE 22:02:35 21° ESE visible
23 Dec -1.3 21:11:25 10° S 21:13:26 15° SSE 21:15:26 10° ESE visible
23 Dec -1.9 22:47:06 10° SW 22:49:02 30° WSW 22:49:02 30° WSW visible
